Home   Weather   Cabinda   Past weeks
Flag for Angola

Past Weather in Cabinda, Angola — Yesterday and Last 2 Weeks

Now
73 °F

Thunderstorms. Passing clouds.


Feels Like: 68 °F
Forecast: 82 / 76 °F
Wind: 3 mph from Northeast

Location: Pointe Airport-Noire

Current Time: Oct 18, 2019 at 2:46:55 am

Latest Report: Oct 18, 2019 at 2:00 am


Visibility: 5 mi

Pressure: 29.86 "Hg

Humidity: 100%

Dew Point: 73 °F

Location of CabindaLocation

Past Weather in Cabinda — Graph

°F

Cabinda Temperature Yesterday

Maximum temperature yesterday: 81 °F (at 12:00 am)
Minimum temperature yesterday: 73 °F (at 5:00 pm)
Average temperature yesterday: 78 °F

High & Low Weather Summary for the Past Weeks

 TemperatureHumidityPressure
High86 °F (Oct 3, 2:00 pm)100% (Oct 3, 2:00 am)29.98 "Hg (Oct 3, 2:00 am)
Low72 °F (Oct 7, 7:00 am)66% (Oct 6, 2:00 pm)29.74 "Hg (Oct 6, 4:00 pm)
Average79 °F90%29.85 "Hg
* Reported Oct 3 1:00 am — Oct 18 1:00 am, Cabinda. Weather by CustomWeather, © 2019

Note: Actual official high and low records may vary slightly from our data, if they occured in-between our weather recording intervals... More about our weather records

Advertising

Cabinda Weather History for the Previous 24 Hours

Scroll right to see more
 ConditionsComfort  
Time TempWeatherWind HumidityBarometerVisibility
1:00 am
Fri, Oct 18
73 °FThunderstorms. Passing clouds.2 mph100%29.89 "Hg5 mi
12:00 am73 °FThunderstorms. Passing clouds.5 mph100%29.92 "Hg5 mi
11:00 pm
Thu, Oct 17
73 °FThunderstorms. Passing clouds.7 mph100%29.92 "Hg5 mi
10:00 pm73 °FThunderstorms. Passing clouds.No wind94%29.92 "Hg5 mi
9:00 pm73 °FThunderstorms. Passing clouds.6 mph100%29.89 "Hg5 mi
8:00 pm73 °FThunderstorms. Passing clouds.1 mph100%29.86 "Hg5 mi
7:00 pm73 °FThunderstorms. Passing clouds.2 mph94%29.86 "Hg5 mi
6:00 pm73 °FThunderstorms. More clouds than sun.2 mph100%29.86 "Hg5 mi
5:00 pm73 °FThunderstorms. Mostly cloudy.8 mph94%29.83 "Hg4 mi
3:00 pm81 °FScattered clouds.7 mph89%29.83 "HgN/A
2:00 pm81 °FBroken clouds.12 mph89%29.83 "HgN/A
1:00 pm81 °FBroken clouds.9 mph94%29.86 "HgN/A
12:00 pm81 °FBroken clouds.9 mph94%29.89 "HgN/A
11:00 am81 °FBroken clouds.7 mph94%29.92 "Hg6 mi
10:00 am79 °FRain. Broken clouds.9 mph94%29.92 "Hg2 mi
9:00 am81 °FDrizzle. Broken clouds.6 mph94%29.92 "HgN/A
8:00 am81 °FBroken clouds.7 mph89%29.89 "HgN/A
7:00 am79 °FBroken clouds.3 mph94%29.89 "Hg4 mi
6:00 am79 °FMostly cloudy.2 mph94%29.86 "HgN/A
5:00 am79 °FPartly cloudy.5 mph94%29.86 "Hg4 mi
4:00 am79 °FPartly cloudy.2 mph94%29.86 "Hg4 mi
3:00 am79 °FPassing clouds.2 mph94%29.86 "Hg4 mi
2:00 am79 °FPassing clouds.3 mph94%29.86 "Hg4 mi
Weather by CustomWeather, © 2019

See weather overview